This demonstration page uses our WeatherBlox Daily Observations layout. Learn more.

Left ArrowRight Arrow

34.74481, -87.66753

Hourly Observations for April 20, 2015

Temp ( °F °C ) Dew Point ( °F °C ) Humidity (%) Winds ( mph kmh ) Pressure ( in mb ) Visibility ( mi km ) Precip ( " mm )
12:53 am 00:53 Mostly Cloudy 66 18.9 57 13.9 73 73 SSW 10 17 29.63 1003 10 16 0.00 0.00
1:00 am 01:00 Mostly Cloudy with Nearby Thunderstorms 66 18.9 58 14.4 75 75 WSW 18 30 29.68 1005 10 16 0.00 0.03
1:08 am 01:08 Cloudy with Thunderstorms 67 19.4 57 13.9 71 71 W 23 37 29.71 1006 9 14 0.00 0.03
1:21 am 01:21 Cloudy with Thunderstorms 63 17.2 57 13.9 81 81 WSW 18 30 29.74 1007 5 8 0.04 1.02
1:48 am 01:48 Cloudy with Rain 63 17 57 14 83 83 WSW 10 17 29.71 1006 5 8 0.14 3.56
1:53 am 01:53 Cloudy with Rain 62 16.7 58 14.4 86 86 SW 10 17 29.70 1006 6 10 0.15 3.81
2:53 am 02:53 Mostly Cloudy 61 16.1 56 13.3 84 84 S 8 13 29.61 1003 10 16 0.09 2.29
3:53 am 03:53 Clear 59 15 54 12.2 83 83 SW 8 13 29.64 1004 10 16 0.00 0.00
4:53 am 04:53 Clear 58 14.4 54 12.2 87 87 WSW 9 15 29.65 1004 10 16 0.00 0.00
5:30 am 05:30 Mostly Cloudy 59 15 55 12.8 87 87 W 8 13 29.68 1005 10 16 0.00 0.00
5:53 am 05:53 Cloudy 59 15 56 13.3 90 90 WSW 8 13 29.67 1005 10 16 0.00 0.00
6:29 am 06:29 Partly Cloudy 58 14.4 54 12.2 87 87 WSW 9 15 29.68 1005 10 16 0.00 0.00
6:53 am 06:53 Partly Cloudy 58 14.4 54 12.2 87 87 WSW 7 11 29.69 1005 10 16 0.00 0.00
7:03 am 07:03 Mostly Cloudy 58 14.4 54 12.2 87 87 WSW 7 11 29.71 1006 10 16 0.00 0.00
7:53 am 07:53 Cloudy 59 15 54 12.2 83 83 SW 9 15 29.71 1006 10 16 0.00 0.00
8:38 am 08:38 Cloudy 60 15.6 55 12.8 84 84 WSW 9 15 29.74 1007 10 16 0.00 0.00
8:53 am 08:53 Cloudy 60 15.6 55 12.8 84 84 WSW 12 19 29.73 1007 10 16 0.00 0.00
9:25 am 09:25 Cloudy 61 16.1 53 11.7 75 75 W 16 26 29.77 1008 10 16 0.00 0.00
9:53 am 09:53 Cloudy 60 15.6 53 11.7 78 78 W 12 19 29.77 1008 10 16 0.00 0.00
10:23 am 10:23 Cloudy 61 16.1 52 11.1 72 72 WNW 12 19 29.80 1009 10 16 0.00 0.00
10:53 am 10:53 Cloudy 60 15.6 51 10.6 72 72 W 12 19 29.79 1009 10 16 0.00 0.00
11:53 am 11:53 Cloudy 62 16.7 52 11.1 70 70 WSW 13 20 29.80 1009 10 16 0.00 0.00
12:11 pm 12:11 Cloudy with Light Rain 59 15 50 10 72 72 WNW 13 20 29.80 1009 10 16 0.00 0.03
12:18 pm 12:18 Cloudy 60 15.6 50 10 70 70 W 14 22 29.80 1009 10 16 0.00 0.03
12:53 pm 12:53 Mostly Cloudy 63 17.2 52 11.1 68 68 W 10 17 29.80 1009 10 16 0.00 0.03
1:53 pm 13:53 Mostly Cloudy 66 18.9 51 10.6 59 59 W 16 26 29.79 1009 10 16 0.00 0.00
2:53 pm 14:53 Mostly Cloudy 64 17.8 48 8.9 56 56 W 17 28 29.79 1009 10 16 0.00 0.00
3:23 pm 15:23 Partly Cloudy 65 18.3 50 10 59 59 WNW 14 22 29.80 1009 10 16 0.00 0.00
3:53 pm 15:53 Mostly Sunny 66 18.9 49 9.4 54 54 WNW 18 30 29.78 1009 10 16 0.00 0.00
4:53 pm 16:53 Mostly Sunny 65 18.3 45 7.2 49 49 W 16 26 29.80 1009 10 16 0.00 0.00
5:53 pm 17:53 Partly Cloudy 63 17.2 46 7.8 54 54 WNW 10 17 29.81 1010 10 16 0.00 0.00
6:53 pm 18:53 Mostly Sunny 61 16.1 42 5.6 50 50 WNW 9 15 29.83 1010 10 16 0.00 0.00
7:53 pm 19:53 Mostly Clear 56 13.3 42 5.6 60 60 WNW 8 13 29.86 1011 10 16 0.00 0.00
8:53 pm 20:53 Clear 54 12.2 43 6.1 67 67 W 5 7 29.90 1013 10 16 0.00 0.00
9:53 pm 21:53 Clear 54 12.2 43 6.1 67 67 Calm 29.93 1013 10 16 0.00 0.00
10:53 pm 22:53 Clear 50 10 44 6.7 80 80 Calm 29.94 1014 10 16 0.00 0.00
11:53 pm 23:53 Clear 48 8.9 43 6.1 83 83 SSE 3 6 29.95 1014 10 16 0.00 0.00

Powered by AerisWeather